Time,TemperatureF,DewpointF,PressureIn,WindDirection,WindDirectionDegrees,WindSpeedMPH,WindSpeedGustMPH,Humidity,HourlyPrecipIn,Conditions,Clouds,dailyrainin,SoftwareType,DateUTC
2013-03-04 00:00:00,48.0,44.6,30.05,ENE,70,3.0,5.0,88,0.00,,,-99.99,Weather View 32 v60,2013-03-04 08:00:00,
2013-03-04 00:05:00,47.9,44.5,30.05,East,93,2.0,5.0,88,0.00,,,-99.99,Weather View 32 v60,2013-03-04 08:05:00,
2013-03-04 00:10:00,47.9,44.5,30.05,ESE,105,3.0,5.0,88,0.00,,,-99.99,Weather View 32 v60,2013-03-04 08:10:00,
2013-03-04 00:15:00,48.0,44.6,30.05,East,92,2.0,4.0,88,0.00,,,-99.99,Weather View 32 v60,2013-03-04 08:15:00,
2013-03-04 00:20:00,48.0,44.6,30.05,NE,41,1.0,4.0,88,0.00,,,-99.99,Weather View 32 v60,2013-03-04 08:20:00,
2013-03-04 00:25:00,48.1,44.7,30.05,NE,54,1.0,4.0,88,0.00,,,-99.99,Weather View 32 v60,2013-03-04 08:25:00,
2013-03-04 00:30:00,48.1,44.7,30.05,NE,40,2.0,4.0,88,0.00,,,-99.99,Weather View 32 v60,2013-03-04 08:30:00,
2013-03-04 00:35:00,48.1,44.7,30.05,ESE,102,5.0,5.0,88,0.00,,,-99.99,Weather View 32 v60,2013-03-04 08:35:00,
2013-03-04 00:40:00,48.0,44.6,30.05,ENE,63,4.0,5.0,88,0.00,,,-99.99,Weather View 32 v60,2013-03-04 08:40:00,
2013-03-04 00:45:00,47.8,44.4,30.06,East,80,2.0,5.0,88,0.00,,,-99.99,Weather View 32 v60,2013-03-04 08:45:00,
2013-03-04 00:50:00,47.8,44.4,30.06,ENE,58,2.0,5.0,88,0.00,,,-99.99,Weather View 32 v60,2013-03-04 08:50:00,
2013-03-04 00:55:00,47.8,44.4,30.06,NE,46,2.0,5.0,88,0.00,,,-99.99,Weather View 32 v60,2013-03-04 08:55:00,
2013-03-04 01:00:00,47.7,44.3,30.06,ENE,65,5.0,5.0,88,0.00,,,-99.99,Weather View 32 v60,2013-03-04 09:00:00,
2013-03-04 01:05:00,47.6,44.5,30.06,East,82,2.0,5.0,89,0.00,,,-99.99,Weather View 32 v60,2013-03-04 09:05:00,
2013-03-04 01:10:00,47.6,44.5,30.07,NE,52,2.0,5.0,89,0.00,,,-99.99,Weather View 32 v60,2013-03-04 09:10:00,
2013-03-04 01:15:00,47.6,44.5,30.06,ENE,65,3.0,5.0,89,0.00,,,-99.99,Weather View 32 v60,2013-03-04 09:15:00,
2013-03-04 01:20:00,47.4,44.3,30.06,East,79,2.0,5.0,89,0.00,,,-99.99,Weather View 32 v60,2013-03-04 09:20:00,
2013-03-04 01:25:00,47.1,44.0,30.06,ENE,58,4.0,6.0,89,0.00,,,-99.99,Weather View 32 v60,2013-03-04 09:25:00,
2013-03-04 01:30:00,46.6,43.5,30.06,ENE,70,4.0,7.0,89,0.00,,,-99.99,Weather View 32 v60,2013-03-04 09:30:00,
2013-03-04 01:35:00,46.4,43.3,30.05,NE,56,1.0,7.0,89,0.00,,,-99.99,Weather View 32 v60,2013-03-04 09:35:00,
2013-03-04 01:40:00,46.3,43.2,30.05,ENE,66,4.0,7.0,89,0.00,,,-99.99,Weather View 32 v60,2013-03-04 09:40:00,
2013-03-04 01:45:00,46.1,43.0,30.05,East,86,5.0,7.0,89,0.00,,,-99.99,Weather View 32 v60,2013-03-04 09:45:00,
2013-03-04 01:50:00,46.2,43.4,30.05,NE,36,4.0,7.0,90,0.00,,,-99.99,Weather View 32 v60,2013-03-04 09:50:00,
2013-03-04 01:55:00,46.4,43.6,30.05,NE,56,1.0,7.0,90,0.00,,,-99.99,Weather View 32 v60,2013-03-04 09:55:00,
2013-03-04 02:00:00,46.4,43.6,30.05,NE,34,4.0,7.0,90,0.00,,,-99.99,Weather View 32 v60,2013-03-04 10:00:00,
2013-03-04 02:05:00,46.4,43.6,30.05,NNE,22,1.0,7.0,90,0.00,,,-99.99,Weather View 32 v60,2013-03-04 10:05:00,
2013-03-04 02:10:00,46.2,43.4,30.05,NNE,25,4.0,7.0,90,0.00,,,-99.99,Weather View 32 v60,2013-03-04 10:10:00,
2013-03-04 02:15:00,46.2,43.4,30.05,NNE,26,3.0,7.0,90,0.00,,,-99.99,Weather View 32 v60,2013-03-04 10:15:00,
2013-03-04 02:20:00,46.2,43.4,30.05,NE,37,2.0,7.0,90,0.00,,,-99.99,Weather View 32 v60,2013-03-04 10:20:00,
2013-03-04 02:25:00,46.3,43.5,30.05,NE,42,1.0,7.0,90,0.00,,,-99.99,Weather View 32 v60,2013-03-04 10:25:00,
2013-03-04 02:30:00,46.3,43.5,30.05,ENE,65,3.0,7.0,90,0.00,,,-99.99,Weather View 32 v60,2013-03-04 10:30:00,
2013-03-04 02:40:00,46.0,43.2,30.06,East,92,2.0,6.0,90,0.00,,,-99.99,Weather View 32 v60,2013-03-04 10:40:00,
2013-03-04 03:05:00,45.4,42.9,30.06,ESE,106,4.0,5.0,91,0.00,,,-99.99,Weather View 32 v60,2013-03-04 11:05:00,
2013-03-04 03:15:00,45.3,42.8,30.06,East,87,2.0,5.0,91,0.00,,,-99.99,Weather View 32 v60,2013-03-04 11:15:00,
2013-03-04 03:30:00,45.3,42.8,30.06,ENE,74,2.0,5.0,91,0.00,,,-99.99,Weather View 32 v60,2013-03-04 11:30:00,
2013-03-04 03:35:00,45.4,42.9,30.07,NE,45,2.0,5.0,91,0.00,,,-99.99,Weather View 32 v60,2013-03-04 11:35:00,
2013-03-04 03:38:00,46.3,43.5,30.05,ENE,63,3.0,6.0,90,0.00,,,-99.99,Weather View 32 v60,2013-03-04 11:38:00,
2013-03-04 03:48:00,45.7,42.9,30.06,ESE,116,2.0,6.0,90,0.00,,,-99.99,Weather View 32 v60,2013-03-04 11:48:00,
2013-03-04 03:50:00,45.7,43.5,30.07,NNE,25,1.0,5.0,92,0.00,,,-99.99,Weather View 32 v60,2013-03-04 11:50:00,
2013-03-04 03:53:00,45.5,42.7,30.06,East,89,3.0,6.0,90,0.00,,,-99.99,Weather View 32 v60,2013-03-04 11:53:00,
2013-03-04 03:58:00,45.4,42.9,30.06,ENE,64,3.0,5.0,91,0.00,,,-99.99,Weather View 32 v60,2013-03-04 11:58:00,
2013-03-04 04:00:00,45.8,43.6,30.08,ENE,57,2.0,5.0,92,0.00,,,-99.99,Weather View 32 v60,2013-03-04 12:00:00,
2013-03-04 04:03:00,45.5,43.0,30.06,East,93,5.0,5.0,91,0.00,,,-99.99,Weather View 32 v60,2013-03-04 12:03:00,
2013-03-04 04:05:00,45.9,43.7,30.07,SE,145,2.0,5.0,92,0.00,,,-99.99,Weather View 32 v60,2013-03-04 12:05:00,
2013-03-04 04:10:00,45.9,43.7,30.07,ENE,58,3.0,5.0,92,0.00,,,-99.99,Weather View 32 v60,2013-03-04 12:10:00,
2013-03-04 04:13:00,45.3,42.8,30.06,East,85,2.0,5.0,91,0.00,,,-99.99,Weather View 32 v60,2013-03-04 12:13:00,
2013-03-04 04:23:00,45.2,42.7,30.07,East,96,3.0,5.0,91,0.00,,,-99.99,Weather View 32 v60,2013-03-04 12:23:00,
2013-03-04 04:25:00,46.0,43.8,30.08,WNW,289,0.0,4.0,92,0.00,,,-99.99,Weather View 32 v60,2013-03-04 12:25:00,
2013-03-04 04:28:00,45.2,42.7,30.06,East,101,3.0,5.0,91,0.00,,,-99.99,Weather View 32 v60,2013-03-04 12:28:00,
2013-03-04 04:35:00,46.2,44.0,30.08,WNW,293,1.0,4.0,92,0.00,,,-99.99,Weather View 32 v60,2013-03-04 12:35:00,
2013-03-04 04:40:00,46.2,44.0,30.08,WNW,301,2.0,4.0,92,0.00,,,-99.99,Weather View 32 v60,2013-03-04 12:40:00,
2013-03-04 04:43:00,45.5,43.3,30.07,ENE,72,2.0,5.0,92,0.00,,,-99.99,Weather View 32 v60,2013-03-04 12:43:00,
2013-03-04 04:45:00,46.3,44.1,30.08,WNW,283,0.0,4.0,92,0.00,,,-99.99,Weather View 32 v60,2013-03-04 12:45:00,
2013-03-04 04:48:00,45.6,43.4,30.07,NE,39,1.0,5.0,92,0.00,,,-99.99,Weather View 32 v60,2013-03-04 12:48:00,
2013-03-04 04:50:00,46.3,44.1,30.08,WNW,288,2.0,4.0,92,0.00,,,-99.99,Weather View 32 v60,2013-03-04 12:50:00,
2013-03-04 04:58:00,45.7,43.5,30.07,ENE,71,1.0,5.0,92,0.00,,,-99.99,Weather View 32 v60,2013-03-04 12:58:00,
2013-03-04 05:00:00,46.3,44.1,30.08,NW,314,1.0,4.0,92,0.00,,,-99.99,Weather View 32 v60,2013-03-04 13:00:00,
2013-03-04 05:05:00,46.4,44.2,30.08,West,270,1.0,4.0,92,0.00,,,-99.99,Weather View 32 v60,2013-03-04 13:05:00,
2013-03-04 05:15:00,46.4,44.2,30.08,NE,56,2.0,3.0,92,0.00,,,-99.99,Weather View 32 v60,2013-03-04 13:15:00,
2013-03-04 05:18:00,45.9,43.7,30.08,NNE,15,1.0,5.0,92,0.00,,,-99.99,Weather View 32 v60,2013-03-04 13:18:00,
2013-03-04 05:23:00,46.0,43.8,30.08,West,277,1.0,4.0,92,0.00,,,-99.99,Weather View 32 v60,2013-03-04 13:23:00,
2013-03-04 05:25:00,46.4,44.2,30.08,East,88,2.0,4.0,92,0.00,,,-99.99,Weather View 32 v60,2013-03-04 13:25:00,
2013-03-04 05:30:00,46.5,44.3,30.08,ENE,57,1.0,4.0,92,0.00,,,-99.99,Weather View 32 v60,2013-03-04 13:30:00,
2013-03-04 05:33:00,46.2,44.0,30.08,WNW,290,0.0,4.0,92,0.00,,,-99.99,Weather View 32 v60,2013-03-04 13:33:00,
2013-03-04 05:45:00,46.2,44.0,30.08,WNW,301,2.0,4.0,92,0.00,,,-99.99,Weather View 32 v60,2013-03-04 13:45:00,
2013-03-04 05:55:00,46.2,44.0,30.08,NNW,334,1.0,4.0,92,0.00,,,-99.99,Weather View 32 v60,2013-03-04 13:55:00,
2013-03-04 05:58:00,46.3,44.1,30.08,NW,308,1.0,4.0,92,0.00,,,-99.99,Weather View 32 v60,2013-03-04 13:58:00,
2013-03-04 06:00:00,46.2,44.0,30.08,WSW,237,2.0,4.0,92,0.00,,,-99.99,Weather View 32 v60,2013-03-04 14:00:00,
2013-03-04 06:13:00,46.4,44.2,30.08,SE,126,1.0,4.0,92,0.00,,,-99.99,Weather View 32 v60,2013-03-04 14:13:00,
2013-03-04 06:20:00,46.5,44.3,30.09,West,281,2.0,4.0,92,0.00,,,-99.99,Weather View 32 v60,2013-03-04 14:20:00,
2013-03-04 06:23:00,46.4,44.2,30.08,East,83,4.0,4.0,92,0.00,,,-99.99,Weather View 32 v60,2013-03-04 14:23:00,
2013-03-04 06:38:00,46.3,44.1,30.08,NE,50,2.0,4.0,92,0.00,,,-99.99,Weather View 32 v60,2013-03-04 14:38:00,
2013-03-04 06:43:00,46.2,44.0,30.08,ESE,112,2.0,4.0,92,0.00,,,-99.99,Weather View 32 v60,2013-03-04 14:43:00,
2013-03-04 06:45:00,46.8,44.6,30.10,SSE,168,5.0,6.0,92,0.00,,,-99.99,Weather View 32 v60,2013-03-04 14:45:00,
2013-03-04 06:48:00,46.0,43.8,30.08,ESE,112,2.0,4.0,92,0.00,,,-99.99,Weather View 32 v60,2013-03-04 14:48:00,
2013-03-04 06:50:00,46.9,44.7,30.10,SSE,158,2.0,6.0,92,0.00,,,-99.99,Weather View 32 v60,2013-03-04 14:50:00,
2013-03-04 06:53:00,46.1,43.9,30.08,ENE,68,0.0,4.0,92,0.00,,,-99.99,Weather View 32 v60,2013-03-04 14:53:00,
2013-03-04 06:55:00,46.9,44.7,30.10,SSW,213,3.0,6.0,92,0.00,,,-99.99,Weather View 32 v60,2013-03-04 14:55:00,
2013-03-04 07:08:00,46.2,44.0,30.08,West,262,1.0,4.0,92,0.00,,,-99.99,Weather View 32 v60,2013-03-04 15:08:00,
2013-03-04 07:15:00,47.0,44.8,30.10,SSW,205,3.0,7.0,92,0.00,,,-99.99,Weather View 32 v60,2013-03-04 15:15:00,
2013-03-04 07:18:00,46.4,44.2,30.09,West,267,2.0,4.0,92,0.00,,,-99.99,Weather View 32 v60,2013-03-04 15:18:00,
2013-03-04 07:28:00,46.6,44.4,30.09,West,267,4.0,4.0,92,0.00,,,-99.99,Weather View 32 v60,2013-03-04 15:28:00,
2013-03-04 07:33:00,46.7,44.5,30.10,WNW,302,2.0,4.0,92,0.00,,,-99.99,Weather View 32 v60,2013-03-04 15:33:00,
2013-03-04 07:38:00,46.8,44.6,30.10,SW,226,2.0,4.0,92,0.00,,,-99.99,Weather View 32 v60,2013-03-04 15:38:00,
2013-03-04 07:43:00,46.8,44.6,30.10,West,268,3.0,4.0,92,0.00,,,-99.99,Weather View 32 v60,2013-03-04 15:43:00,
2013-03-04 08:03:00,47.0,44.8,30.10,SE,138,2.0,6.0,92,0.00,,,-99.99,Weather View 32 v60,2013-03-04 16:03:00,
2013-03-04 08:08:00,46.9,44.7,30.10,SSW,212,4.0,7.0,92,0.00,,,-99.99,Weather View 32 v60,2013-03-04 16:08:00,
2013-03-04 08:13:00,46.8,44.6,30.10,SSW,210,2.0,7.0,92,0.00,,,-99.99,Weather View 32 v60,2013-03-04 16:13:00,
2013-03-04 08:23:00,46.9,44.7,30.11,West,274,2.0,7.0,92,0.00,,,-99.99,Weather View 32 v60,2013-03-04 16:23:00,
2013-03-04 08:28:00,47.0,44.8,30.11,SW,224,3.0,7.0,92,0.00,,,-99.99,Weather View 32 v60,2013-03-04 16:28:00,
2013-03-04 08:33:00,47.0,44.8,30.11,SSW,203,2.0,7.0,92,0.00,,,-99.99,Weather View 32 v60,2013-03-04 16:33:00,
2013-03-04 08:40:00,47.4,44.6,30.11,ESE,116,2.0,6.0,90,0.00,,,-99.99,Weather View 32 v60,2013-03-04 16:40:00,
2013-03-04 08:43:00,46.9,44.7,30.11,South,179,4.0,7.0,92,0.00,,,-99.99,Weather View 32 v60,2013-03-04 16:43:00,
2013-03-04 08:48:00,47.1,44.9,30.11,SSW,208,1.0,7.0,92,0.00,,,-99.99,Weather View 32 v60,2013-03-04 16:48:00,
2013-03-04 08:53:00,47.2,45.0,30.11,SSW,205,2.0,7.0,92,0.00,,,-99.99,Weather View 32 v60,2013-03-04 16:53:00,
2013-03-04 09:03:00,47.2,45.0,30.11,SE,142,2.0,7.0,92,0.00,,,-99.99,Weather View 32 v60,2013-03-04 17:03:00,
2013-03-04 09:08:00,47.2,45.0,30.11,SE,140,2.0,7.0,92,0.00,,,-99.99,Weather View 32 v60,2013-03-04 17:08:00,
2013-03-04 09:10:00,47.6,44.8,30.11,ESE,108,2.0,7.0,90,0.00,,,-99.99,Weather View 32 v60,2013-03-04 17:10:00,
2013-03-04 09:13:00,47.2,44.7,30.11,ESE,120,3.0,7.0,91,0.00,,,-99.99,Weather View 32 v60,2013-03-04 17:13:00,
2013-03-04 09:18:00,47.2,44.7,30.12,SSE,159,2.0,7.0,91,0.00,,,-99.99,Weather View 32 v60,2013-03-04 17:18:00,
2013-03-04 09:25:00,48.6,45.2,30.10,West,276,1.0,7.0,88,0.00,,,-99.99,Weather View 32 v60,2013-03-04 17:25:00,
2013-03-04 09:28:00,47.2,44.7,30.12,East,98,2.0,7.0,91,0.00,,,-99.99,Weather View 32 v60,2013-03-04 17:28:00,
2013-03-04 09:30:00,48.4,44.7,30.11,WNW,285,2.0,7.0,87,0.00,,,-99.99,Weather View 32 v60,2013-03-04 17:30:00,
2013-03-04 09:33:00,47.4,44.9,30.12,SW,228,1.0,7.0,91,0.00,,,-99.99,Weather View 32 v60,2013-03-04 17:33:00,
2013-03-04 09:35:00,48.6,44.9,30.11,WSW,256,5.0,7.0,87,0.00,,,-99.99,Weather View 32 v60,2013-03-04 17:35:00,
2013-03-04 09:40:00,48.2,44.2,30.11,SSE,163,3.0,7.0,86,0.00,,,-99.99,Weather View 32 v60,2013-03-04 17:40:00,
2013-03-04 09:43:00,47.4,44.6,30.11,ESE,116,2.0,6.0,90,0.00,,,-99.99,Weather View 32 v60,2013-03-04 17:43:00,
2013-03-04 09:45:00,48.1,44.4,30.11,ESE,118,4.0,7.0,87,0.00,,,-99.99,Weather View 32 v60,2013-03-04 17:45:00,
2013-03-04 09:50:00,48.3,44.6,30.11,SSE,156,4.0,7.0,87,0.00,,,-99.99,Weather View 32 v60,2013-03-04 17:50:00,
2013-03-04 09:53:00,47.1,44.3,30.11,East,93,5.0,7.0,90,0.00,,,-99.99,Weather View 32 v60,2013-03-04 17:53:00,
2013-03-04 09:55:00,48.4,44.4,30.11,SSE,148,2.0,7.0,86,0.00,,,-99.99,Weather View 32 v60,2013-03-04 17:55:00,
2013-03-04 09:58:00,47.0,44.2,30.11,ESE,114,4.0,7.0,90,0.00,,,-99.99,Weather View 32 v60,2013-03-04 17:58:00,
2013-03-04 10:00:00,48.8,44.8,30.11,SSE,164,2.0,7.0,86,0.00,,,-99.99,Weather View 32 v60,2013-03-04 18:00:00,
2013-03-04 10:05:00,49.1,45.1,30.11,WSW,254,2.0,7.0,86,0.00,,,-99.99,Weather View 32 v60,2013-03-04 18:05:00,
2013-03-04 10:08:00,47.4,44.6,30.11,ESE,119,4.0,7.0,90,0.00,,,-99.99,Weather View 32 v60,2013-03-04 18:08:00,
2013-03-04 10:10:00,49.0,44.7,30.11,South,169,3.0,6.0,85,0.00,,,-99.99,Weather View 32 v60,2013-03-04 18:10:00,
2013-03-04 10:15:00,48.7,44.1,30.12,SW,222,4.0,6.0,84,0.00,,,-99.99,Weather View 32 v60,2013-03-04 18:15:00,
2013-03-04 10:18:00,47.9,44.8,30.11,SW,220,2.0,7.0,89,0.00,,,-99.99,Weather View 32 v60,2013-03-04 18:18:00,
2013-03-04 10:20:00,48.6,44.3,30.12,SW,236,2.0,6.0,85,0.00,,,-99.99,Weather View 32 v60,2013-03-04 18:20:00,
2013-03-04 10:23:00,48.4,45.3,30.10,West,276,2.0,7.0,89,0.00,,,-99.99,Weather View 32 v60,2013-03-04 18:23:00,
2013-03-04 10:25:00,48.8,44.5,30.12,WNW,298,2.0,6.0,85,0.00,,,-99.99,Weather View 32 v60,2013-03-04 18:25:00,
2013-03-04 10:30:00,48.9,44.6,30.12,SW,223,4.0,6.0,85,0.00,,,-99.99,Weather View 32 v60,2013-03-04 18:30:00,
2013-03-04 10:35:00,49.2,44.9,30.12,WSW,245,2.0,6.0,85,0.00,,,-99.99,Weather View 32 v60,2013-03-04 18:35:00,
2013-03-04 10:40:00,49.0,44.4,30.12,SSE,164,2.0,6.0,84,0.00,,,-99.99,Weather View 32 v60,2013-03-04 18:40:00,
2013-03-04 10:45:00,49.3,44.3,30.12,SE,138,5.0,6.0,83,0.00,,,-99.99,Weather View 32 v60,2013-03-04 18:45:00,
2013-03-04 10:50:00,49.7,44.7,30.12,SSE,166,2.0,6.0,83,0.00,,,-99.99,Weather View 32 v60,2013-03-04 18:50:00,
2013-03-04 10:55:00,49.9,44.6,30.12,SSW,208,2.0,6.0,82,0.00,,,-99.99,Weather View 32 v60,2013-03-04 18:55:00,
2013-03-04 11:00:00,49.7,44.4,30.11,SE,143,3.0,6.0,82,0.00,,,-99.99,Weather View 32 v60,2013-03-04 19:00:00,
2013-03-04 11:05:00,49.5,44.2,30.11,SSW,209,2.0,6.0,82,0.00,,,-99.99,Weather View 32 v60,2013-03-04 19:05:00,
2013-03-04 11:10:00,49.7,44.4,30.11,SSE,150,3.0,6.0,82,0.00,,,-99.99,Weather View 32 v60,2013-03-04 19:10:00,
2013-03-04 11:15:00,49.7,44.4,30.10,ESE,116,2.0,6.0,82,0.00,,,-99.99,Weather View 32 v60,2013-03-04 19:15:00,
2013-03-04 11:20:00,49.7,44.4,30.10,SW,236,2.0,6.0,82,0.00,,,-99.99,Weather View 32 v60,2013-03-04 19:20:00,
2013-03-04 11:25:00,49.9,44.3,30.09,SSE,158,4.0,6.0,81,0.00,,,-99.99,Weather View 32 v60,2013-03-04 19:25:00,
2013-03-04 11:30:00,50.5,45.2,30.08,SSE,159,4.0,6.0,82,0.00,,,-99.99,Weather View 32 v60,2013-03-04 19:30:00,
2013-03-04 11:35:00,50.9,44.9,30.08,ESE,123,4.0,9.0,80,0.00,,,-99.99,Weather View 32 v60,2013-03-04 19:35:00,
2013-03-04 11:40:00,51.3,45.3,30.07,South,171,2.0,9.0,80,0.00,,,-99.99,Weather View 32 v60,2013-03-04 19:40:00,
2013-03-04 11:45:00,51.6,45.0,30.08,SSW,208,6.0,9.0,78,0.00,,,-99.99,Weather View 32 v60,2013-03-04 19:45:00,
2013-03-04 11:50:00,51.6,45.0,30.08,South,173,5.0,9.0,78,0.00,,,-99.99,Weather View 32 v60,2013-03-04 19:50:00,
2013-03-04 11:55:00,51.4,44.8,30.08,SSE,166,8.0,11.0,78,0.00,,,-99.99,Weather View 32 v60,2013-03-04 19:55:00,
2013-03-04 12:00:00,51.0,44.4,30.08,SSE,151,5.0,11.0,78,0.00,,,-99.99,Weather View 32 v60,2013-03-04 20:00:00,
2013-03-04 12:05:00,51.1,44.5,30.07,SW,221,4.0,11.0,78,0.00,,,-99.99,Weather View 32 v60,2013-03-04 20:05:00,
2013-03-04 12:10:00,51.4,44.8,30.07,SE,143,4.0,11.0,78,0.00,,,-99.99,Weather View 32 v60,2013-03-04 20:10:00,
2013-03-04 12:15:00,51.8,44.8,30.07,SW,236,3.0,11.0,77,0.00,,,-99.99,Weather View 32 v60,2013-03-04 20:15:00,
2013-03-04 12:20:00,52.2,44.8,30.07,SSW,205,4.0,11.0,76,0.00,,,-99.99,Weather View 32 v60,2013-03-04 20:20:00,
2013-03-04 12:25:00,52.5,45.1,30.07,WSW,257,5.0,11.0,76,0.00,,,-99.99,Weather View 32 v60,2013-03-04 20:25:00,
2013-03-04 12:30:00,52.4,44.7,30.07,SW,222,2.0,11.0,75,0.00,,,-99.99,Weather View 32 v60,2013-03-04 20:30:00,
2013-03-04 12:35:00,52.8,45.1,30.07,West,265,3.0,11.0,75,0.00,,,-99.99,Weather View 32 v60,2013-03-04 20:35:00,
2013-03-04 12:40:00,53.2,45.5,30.07,West,269,2.0,11.0,75,0.00,,,-99.99,Weather View 32 v60,2013-03-04 20:40:00,
2013-03-04 12:45:00,53.4,45.3,30.07,South,175,7.0,11.0,74,0.00,,,-99.99,Weather View 32 v60,2013-03-04 20:45:00,
2013-03-04 12:50:00,52.9,44.8,30.07,West,276,2.0,11.0,74,0.00,,,-99.99,Weather View 32 v60,2013-03-04 20:50:00,
2013-03-04 12:55:00,53.4,44.9,30.07,WSW,258,3.0,11.0,73,0.00,,,-99.99,Weather View 32 v60,2013-03-04 20:55:00,
2013-03-04 13:00:00,53.8,45.0,30.07,NW,309,8.0,11.0,72,0.00,,,-99.99,Weather View 32 v60,2013-03-04 21:00:00,
2013-03-04 13:05:00,54.6,45.4,30.06,ESE,103,5.0,11.0,71,0.00,,,-99.99,Weather View 32 v60,2013-03-04 21:05:00,
2013-03-04 13:10:00,55.0,45.0,30.06,SW,216,5.0,11.0,69,0.00,,,-99.99,Weather View 32 v60,2013-03-04 21:10:00,
2013-03-04 13:15:00,54.9,45.3,30.06,SE,125,5.0,11.0,70,0.00,,,-99.99,Weather View 32 v60,2013-03-04 21:15:00,
2013-03-04 13:20:00,55.4,45.0,30.06,South,172,3.0,11.0,68,0.00,,,-99.99,Weather View 32 v60,2013-03-04 21:20:00,
2013-03-04 13:25:00,56.7,45.8,30.06,ESE,108,3.0,11.0,67,0.00,,,-99.99,Weather View 32 v60,2013-03-04 21:25:00,
2013-03-04 13:30:00,55.8,44.6,30.06,SE,133,2.0,11.0,66,0.00,,,-99.99,Weather View 32 v60,2013-03-04 21:30:00,
2013-03-04 13:35:00,56.0,45.6,30.06,SSE,151,1.0,11.0,68,0.00,,,-99.99,Weather View 32 v60,2013-03-04 21:35:00,
2013-03-04 13:40:00,56.7,45.4,30.06,ENE,67,2.0,11.0,66,0.00,,,-99.99,Weather View 32 v60,2013-03-04 21:40:00,
2013-03-04 13:45:00,56.7,45.4,30.06,East,98,5.0,11.0,66,0.00,,,-99.99,Weather View 32 v60,2013-03-04 21:45:00,
2013-03-04 13:50:00,57.3,44.8,30.06,SSW,207,5.0,11.0,63,0.00,,,-99.99,Weather View 32 v60,2013-03-04 21:50:00,
2013-03-04 14:00:00,58.2,45.2,30.05,SW,216,6.0,11.0,62,0.00,,,-99.99,Weather View 32 v60,2013-03-04 22:00:00,
2013-03-04 14:05:00,57.5,45.0,30.05,WSW,255,2.0,8.0,63,0.00,,,-99.99,Weather View 32 v60,2013-03-04 22:05:00,
2013-03-04 14:10:00,57.6,44.6,30.05,SE,143,5.0,8.0,62,0.00,,,-99.99,Weather View 32 v60,2013-03-04 22:10:00,
2013-03-04 14:15:00,58.2,45.6,30.05,WSW,257,2.0,9.0,63,0.00,,,-99.99,Weather View 32 v60,2013-03-04 22:15:00,
2013-03-04 14:20:00,58.0,45.0,30.05,SSE,157,5.0,9.0,62,0.00,,,-99.99,Weather View 32 v60,2013-03-04 22:20:00,
2013-03-04 14:35:00,58.1,45.1,30.04,SSE,158,6.0,11.0,62,0.00,,,-99.99,Weather View 32 v60,2013-03-04 22:35:00,
2013-03-04 14:40:00,58.4,45.0,30.03,ESE,123,4.0,11.0,61,0.00,,,-99.99,Weather View 32 v60,2013-03-04 22:40:00,
2013-03-04 14:45:00,58.6,44.7,30.03,South,170,4.0,11.0,60,0.00,,,-99.99,Weather View 32 v60,2013-03-04 22:45:00,
2013-03-04 14:50:00,58.8,44.9,30.03,South,176,8.0,11.0,60,0.00,,,-99.99,Weather View 32 v60,2013-03-04 22:50:00,
2013-03-04 14:55:00,58.3,44.9,30.03,SSW,212,7.0,11.0,61,0.00,,,-99.99,Weather View 32 v60,2013-03-04 22:55:00,
2013-03-04 14:58:00,57.4,45.7,30.05,WNW,282,2.0,11.0,65,0.00,,,-99.99,Weather View 32 v60,2013-03-04 22:58:00,
2013-03-04 15:00:00,58.2,44.8,30.03,SE,127,6.0,11.0,61,0.00,,,-99.99,Weather View 32 v60,2013-03-04 23:00:00,
2013-03-04 15:10:00,57.9,44.5,30.03,SSE,164,5.0,11.0,61,0.00,,,-99.99,Weather View 32 v60,2013-03-04 23:10:00,
2013-03-04 15:28:00,57.4,44.9,30.04,SSE,158,7.0,11.0,63,0.00,,,-99.99,Weather View 32 v60,2013-03-04 23:28:00,
2013-03-04 15:35:00,56.5,44.0,30.03,ESE,122,4.0,11.0,63,0.00,,,-99.99,Weather View 32 v60,2013-03-04 23:35:00,
2013-03-04 15:40:00,56.8,44.3,30.03,ESE,115,4.0,11.0,63,0.00,,,-99.99,Weather View 32 v60,2013-03-04 23:40:00,
2013-03-04 15:45:00,56.9,44.0,30.03,South,173,5.0,11.0,62,0.00,,,-99.99,Weather View 32 v60,2013-03-04 23:45:00,
2013-03-04 16:08:00,58.0,44.6,30.03,SSE,156,8.0,11.0,61,0.00,,,-99.99,Weather View 32 v60,2013-03-05 00:08:00,
2013-03-04 16:10:00,55.3,43.3,30.03,SSE,154,8.0,11.0,64,0.00,,,-99.99,Weather View 32 v60,2013-03-05 00:10:00,
2013-03-04 16:18:00,58.0,44.6,30.03,SE,132,7.0,11.0,61,0.00,,,-99.99,Weather View 32 v60,2013-03-05 00:18:00,
2013-03-04 16:20:00,54.8,43.2,30.03,SSE,167,4.0,11.0,65,0.00,,,-99.99,Weather View 32 v60,2013-03-05 00:20:00,
2013-03-04 16:23:00,57.7,44.3,30.03,SE,128,6.0,11.0,61,0.00,,,-99.99,Weather View 32 v60,2013-03-05 00:23:00,
2013-03-04 16:28:00,57.4,44.5,30.03,SE,144,8.0,11.0,62,0.00,,,-99.99,Weather View 32 v60,2013-03-05 00:28:00,
2013-03-04 16:40:00,53.4,42.7,30.03,SSE,161,3.0,11.0,67,0.00,,,-99.99,Weather View 32 v60,2013-03-05 00:40:00,
2013-03-04 16:45:00,53.3,42.6,30.02,SSE,159,5.0,11.0,67,0.00,,,-99.99,Weather View 32 v60,2013-03-05 00:45:00,
2013-03-04 16:48:00,56.9,44.0,30.03,South,173,5.0,11.0,62,0.00,,,-99.99,Weather View 32 v60,2013-03-05 00:48:00,
2013-03-04 16:53:00,56.2,43.7,30.03,ESE,104,4.0,11.0,63,0.00,,,-99.99,Weather View 32 v60,2013-03-05 00:53:00,
2013-03-04 16:58:00,55.9,43.5,30.03,South,174,7.0,11.0,63,0.00,,,-99.99,Weather View 32 v60,2013-03-05 00:58:00,
2013-03-04 17:00:00,52.3,42.0,30.02,SSW,211,5.0,11.0,68,0.00,,,-99.99,Weather View 32 v60,2013-03-05 01:00:00,
2013-03-04 17:03:00,55.6,43.6,30.03,South,169,6.0,11.0,64,0.00,,,-99.99,Weather View 32 v60,2013-03-05 01:03:00,
2013-03-04 17:08:00,55.3,43.7,30.02,SSE,164,8.0,11.0,65,0.00,,,-99.99,Weather View 32 v60,2013-03-05 01:08:00,
2013-03-04 17:10:00,51.6,41.7,30.02,SE,144,4.0,11.0,69,0.00,,,-99.99,Weather View 32 v60,2013-03-05 01:10:00,
2013-03-04 17:18:00,55.1,43.1,30.03,SW,230,5.0,11.0,64,0.00,,,-99.99,Weather View 32 v60,2013-03-05 01:18:00,
2013-03-04 17:20:00,51.1,41.6,30.02,SSE,152,5.0,11.0,70,0.00,,,-99.99,Weather View 32 v60,2013-03-05 01:20:00,
2013-03-04 17:28:00,54.5,43.0,30.03,SE,144,8.0,11.0,65,0.00,,,-99.99,Weather View 32 v60,2013-03-05 01:28:00,
2013-03-04 17:30:00,50.6,41.5,30.02,SE,128,4.0,11.0,71,0.00,,,-99.99,Weather View 32 v60,2013-03-05 01:30:00,
2013-03-04 17:33:00,54.1,43.0,30.03,SSE,163,7.0,11.0,66,0.00,,,-99.99,Weather View 32 v60,2013-03-05 01:33:00,
2013-03-04 17:45:00,49.6,41.3,30.02,SSE,161,3.0,10.0,73,0.00,,,-99.99,Weather View 32 v60,2013-03-05 01:45:00,
2013-03-04 17:48:00,53.3,42.6,30.02,SSE,159,5.0,11.0,67,0.00,,,-99.99,Weather View 32 v60,2013-03-05 01:48:00,
2013-03-04 17:53:00,53.1,42.4,30.02,SSE,152,8.0,11.0,67,0.00,,,-99.99,Weather View 32 v60,2013-03-05 01:53:00,
2013-03-04 18:08:00,52.0,41.7,30.02,SE,136,5.0,11.0,68,0.00,,,-99.99,Weather View 32 v60,2013-03-05 02:08:00,
2013-03-04 18:18:00,51.3,41.5,30.02,South,170,4.0,11.0,69,0.00,,,-99.99,Weather View 32 v60,2013-03-05 02:18:00,
2013-03-04 18:20:00,47.8,40.6,30.02,SSE,153,3.0,9.0,76,0.00,,,-99.99,Weather View 32 v60,2013-03-05 02:20:00,
2013-03-04 18:25:00,47.6,40.4,30.02,SSE,162,4.0,9.0,76,0.00,,,-99.99,Weather View 32 v60,2013-03-05 02:25:00,
2013-03-04 18:28:00,50.8,41.4,30.02,SE,141,4.0,11.0,70,0.00,,,-99.99,Weather View 32 v60,2013-03-05 02:28:00,
2013-03-04 18:38:00,50.2,41.5,30.02,SE,139,2.0,10.0,72,0.00,,,-99.99,Weather View 32 v60,2013-03-05 02:38:00,
2013-03-04 18:40:00,47.0,40.2,30.02,SE,137,4.0,9.0,77,0.00,,,-99.99,Weather View 32 v60,2013-03-05 02:40:00,
2013-03-04 18:43:00,49.8,41.1,30.02,SSE,155,5.0,10.0,72,0.00,,,-99.99,Weather View 32 v60,2013-03-05 02:43:00,
2013-03-04 18:45:00,46.9,40.4,30.02,SE,131,4.0,9.0,78,0.00,,,-99.99,Weather View 32 v60,2013-03-05 02:45:00,
2013-03-04 18:48:00,49.6,41.3,30.02,SSE,161,3.0,10.0,73,0.00,,,-99.99,Weather View 32 v60,2013-03-05 02:48:00,
2013-03-04 18:50:00,46.7,40.2,30.02,ESE,121,3.0,9.0,78,0.00,,,-99.99,Weather View 32 v60,2013-03-05 02:50:00,
2013-03-04 18:53:00,49.4,41.1,30.02,South,174,6.0,10.0,73,0.00,,,-99.99,Weather View 32 v60,2013-03-05 02:53:00,
2013-03-04 18:55:00,46.5,40.0,30.02,ESE,123,3.0,9.0,78,0.00,,,-99.99,Weather View 32 v60,2013-03-05 02:55:00,
2013-03-04 18:58:00,49.2,41.3,30.02,SE,144,5.0,9.0,74,0.00,,,-99.99,Weather View 32 v60,2013-03-05 02:58:00,
2013-03-04 19:00:00,46.2,40.0,30.02,SE,127,3.0,9.0,79,0.00,,,-99.99,Weather View 32 v60,2013-03-05 03:00:00,
2013-03-04 19:05:00,46.0,39.8,30.02,East,85,3.0,9.0,79,0.00,,,-99.99,Weather View 32 v60,2013-03-05 03:05:00,
2013-03-04 19:08:00,48.6,41.0,30.02,SSE,167,4.0,9.0,75,0.00,,,-99.99,Weather View 32 v60,2013-03-05 03:08:00,
2013-03-04 19:10:00,45.7,39.9,30.02,ESE,118,3.0,9.0,80,0.00,,,-99.99,Weather View 32 v60,2013-03-05 03:10:00,
2013-03-04 19:13:00,48.3,40.7,30.02,SE,145,4.0,9.0,75,0.00,,,-99.99,Weather View 32 v60,2013-03-05 03:13:00,
2013-03-04 19:15:00,45.5,39.7,30.02,East,88,3.0,9.0,80,0.00,,,-99.99,Weather View 32 v60,2013-03-05 03:15:00,
2013-03-04 19:18:00,48.0,40.4,30.02,SSE,159,3.0,9.0,75,0.00,,,-99.99,Weather View 32 v60,2013-03-05 03:18:00,
2013-03-04 19:20:00,45.2,39.7,30.03,SE,127,1.0,9.0,81,0.00,,,-99.99,Weather View 32 v60,2013-03-05 03:20:00,
2013-03-04 19:25:00,45.2,39.7,30.02,SSE,162,3.0,9.0,81,0.00,,,-99.99,Weather View 32 v60,2013-03-05 03:25:00,
2013-03-04 19:30:00,45.2,39.7,30.02,South,172,2.0,8.0,81,0.00,,,-99.99,Weather View 32 v60,2013-03-05 03:30:00,
2013-03-04 19:33:00,47.4,40.5,30.02,SE,143,4.0,9.0,77,0.00,,,-99.99,Weather View 32 v60,2013-03-05 03:33:00,
2013-03-04 19:35:00,45.2,39.7,30.02,SE,138,4.0,8.0,81,0.00,,,-99.99,Weather View 32 v60,2013-03-05 03:35:00,
2013-03-04 19:38:00,47.2,40.3,30.02,ESE,120,3.0,9.0,77,0.00,,,-99.99,Weather View 32 v60,2013-03-05 03:38:00,
2013-03-04 19:40:00,45.1,39.6,30.02,SSE,164,5.0,7.0,81,0.00,,,-99.99,Weather View 32 v60,2013-03-05 03:40:00,
2013-03-04 19:55:00,44.9,39.7,30.03,SE,124,2.0,8.0,82,0.00,,,-99.99,Weather View 32 v60,2013-03-05 03:55:00,
2013-03-04 20:00:00,44.8,39.6,30.03,SE,134,2.0,8.0,82,0.00,,,-99.99,Weather View 32 v60,2013-03-05 04:00:00,
2013-03-04 20:05:00,44.7,39.5,30.04,SSE,156,3.0,8.0,82,0.00,,,-99.99,Weather View 32 v60,2013-03-05 04:05:00,
2013-03-04 20:10:00,44.6,39.4,30.04,SE,145,3.0,8.0,82,0.00,,,-99.99,Weather View 32 v60,2013-03-05 04:10:00,
2013-03-04 20:15:00,44.4,39.2,30.04,SSE,147,3.0,8.0,82,0.00,,,-99.99,Weather View 32 v60,2013-03-05 04:15:00,
2013-03-04 20:20:00,44.3,39.5,30.04,SSE,148,3.0,8.0,83,0.00,,,-99.99,Weather View 32 v60,2013-03-05 04:20:00,
2013-03-04 20:25:00,44.2,39.4,30.04,SE,137,2.0,8.0,83,0.00,,,-99.99,Weather View 32 v60,2013-03-05 04:25:00,
2013-03-04 20:30:00,44.0,39.2,30.04,ESE,121,2.0,8.0,83,0.00,,,-99.99,Weather View 32 v60,2013-03-05 04:30:00,
2013-03-04 20:35:00,43.8,39.0,30.04,SE,130,2.0,8.0,83,0.00,,,-99.99,Weather View 32 v60,2013-03-05 04:35:00,
2013-03-04 20:40:00,43.5,38.7,30.03,ESE,110,2.0,8.0,83,0.00,,,-99.99,Weather View 32 v60,2013-03-05 04:40:00,
2013-03-04 20:45:00,43.3,38.8,30.03,ESE,117,4.0,8.0,84,0.00,,,-99.99,Weather View 32 v60,2013-03-05 04:45:00,
2013-03-04 20:48:00,45.1,39.9,30.02,SSE,165,4.0,7.0,82,0.00,,,-99.99,Weather View 32 v60,2013-03-05 04:48:00,
2013-03-04 20:50:00,43.1,38.6,30.03,ESE,113,2.0,6.0,84,0.00,,,-99.99,Weather View 32 v60,2013-03-05 04:50:00,
2013-03-04 20:53:00,45.0,39.8,30.02,SE,146,5.0,8.0,82,0.00,,,-99.99,Weather View 32 v60,2013-03-05 04:53:00,
2013-03-04 20:55:00,43.2,39.0,30.03,SSE,167,3.0,6.0,85,0.00,,,-99.99,Weather View 32 v60,2013-03-05 04:55:00,
2013-03-04 21:00:00,43.2,39.0,30.03,SSE,158,2.0,5.0,85,0.00,,,-99.99,Weather View 32 v60,2013-03-05 05:00:00,
2013-03-04 21:05:00,43.1,38.9,30.03,South,173,2.0,5.0,85,0.00,,,-99.99,Weather View 32 v60,2013-03-05 05:05:00,
2013-03-04 21:10:00,43.0,38.8,30.04,SSE,168,3.0,5.0,85,0.00,,,-99.99,Weather View 32 v60,2013-03-05 05:10:00,
2013-03-04 21:15:00,42.9,38.7,30.04,SE,129,2.0,5.0,85,0.00,,,-99.99,Weather View 32 v60,2013-03-05 05:15:00,
2013-03-04 21:20:00,42.8,38.6,30.04,ESE,118,1.0,5.0,85,0.00,,,-99.99,Weather View 32 v60,2013-03-05 05:20:00,
2013-03-04 21:25:00,42.6,38.4,30.04,ESE,119,1.0,5.0,85,0.00,,,-99.99,Weather View 32 v60,2013-03-05 05:25:00,
2013-03-04 21:30:00,42.4,38.2,30.04,SE,124,2.0,5.0,85,0.00,,,-99.99,Weather View 32 v60,2013-03-05 05:30:00,
2013-03-04 21:35:00,42.3,38.4,30.04,SE,126,2.0,5.0,86,0.00,,,-99.99,Weather View 32 v60,2013-03-05 05:35:00,
2013-03-04 21:40:00,42.1,38.2,30.04,ESE,110,2.0,5.0,86,0.00,,,-99.99,Weather View 32 v60,2013-03-05 05:40:00,
2013-03-04 21:45:00,41.8,37.9,30.04,East,101,2.0,5.0,86,0.00,,,-99.99,Weather View 32 v60,2013-03-05 05:45:00,
2013-03-04 21:50:00,41.4,37.5,30.04,ESE,105,2.0,5.0,86,0.00,,,-99.99,Weather View 32 v60,2013-03-05 05:50:00,
2013-03-04 21:55:00,41.1,37.2,30.04,East,80,1.0,4.0,86,0.00,,,-99.99,Weather View 32 v60,2013-03-05 05:55:00,
2013-03-04 22:00:00,40.8,37.2,30.04,SE,128,2.0,4.0,87,0.00,,,-99.99,Weather View 32 v60,2013-03-05 06:00:00,
2013-03-04 22:05:00,40.8,37.2,30.04,SE,126,1.0,4.0,87,0.00,,,-99.99,Weather View 32 v60,2013-03-05 06:05:00,
2013-03-04 22:10:00,41.2,37.9,30.04,SE,132,2.0,4.0,88,0.00,,,-99.99,Weather View 32 v60,2013-03-05 06:10:00,
2013-03-04 22:15:00,41.5,38.2,30.04,SSE,147,3.0,4.0,88,0.00,,,-99.99,Weather View 32 v60,2013-03-05 06:15:00,
2013-03-04 22:20:00,41.7,38.4,30.04,ESE,102,1.0,4.0,88,0.00,,,-99.99,Weather View 32 v60,2013-03-05 06:20:00,
2013-03-04 22:25:00,41.5,38.2,30.04,ESE,102,2.0,4.0,88,0.00,,,-99.99,Weather View 32 v60,2013-03-05 06:25:00,
2013-03-04 22:30:00,41.3,38.0,30.04,ESE,118,2.0,4.0,88,0.00,,,-99.99,Weather View 32 v60,2013-03-05 06:30:00,
2013-03-04 22:35:00,41.0,37.7,30.04,East,97,2.0,4.0,88,0.00,,,-99.99,Weather View 32 v60,2013-03-05 06:35:00,
2013-03-04 22:40:00,40.8,37.5,30.04,ESE,115,2.0,4.0,88,0.00,,,-99.99,Weather View 32 v60,2013-03-05 06:40:00,
2013-03-04 22:45:00,40.7,37.4,30.03,ESE,115,2.0,4.0,88,0.00,,,-99.99,Weather View 32 v60,2013-03-05 06:45:00,
2013-03-04 22:50:00,40.6,37.3,30.03,ESE,122,1.0,4.0,88,0.00,,,-99.99,Weather View 32 v60,2013-03-05 06:50:00,
2013-03-04 22:55:00,40.4,37.1,30.04,East,101,0.0,4.0,88,0.00,,,-99.99,Weather View 32 v60,2013-03-05 06:55:00,
2013-03-04 23:00:00,40.1,36.8,30.04,East,101,1.0,4.0,88,0.00,,,-99.99,Weather View 32 v60,2013-03-05 07:00:00,
2013-03-04 23:05:00,39.9,36.6,30.04,NE,34,1.0,4.0,88,0.00,,,-99.99,Weather View 32 v60,2013-03-05 07:05:00,
2013-03-04 23:10:00,39.7,36.4,30.04,NE,34,1.0,4.0,88,0.00,,,-99.99,Weather View 32 v60,2013-03-05 07:10:00,
2013-03-04 23:15:00,39.6,36.6,30.04,NNE,16,1.0,4.0,89,0.00,,,-99.99,Weather View 32 v60,2013-03-05 07:15:00,
2013-03-04 23:20:00,39.5,36.5,30.04,North,351,0.0,3.0,89,0.00,,,-99.99,Weather View 32 v60,2013-03-05 07:20:00,
2013-03-04 23:25:00,39.4,36.4,30.04,North,350,1.0,3.0,89,0.00,,,-99.99,Weather View 32 v60,2013-03-05 07:25:00,
2013-03-04 23:30:00,39.4,36.4,30.04,NNW,333,1.0,3.0,89,0.00,,,-99.99,Weather View 32 v60,2013-03-05 07:30:00,
2013-03-04 23:35:00,39.4,36.4,30.05,NNW,333,1.0,3.0,89,0.00,,,-99.99,Weather View 32 v60,2013-03-05 07:35:00,
2013-03-04 23:40:00,39.2,36.2,30.05,NNW,332,0.0,3.0,89,0.00,,,-99.99,Weather View 32 v60,2013-03-05 07:40:00,
2013-03-04 23:45:00,39.2,36.5,30.05,ENE,67,2.0,2.0,90,0.00,,,-99.99,Weather View 32 v60,2013-03-05 07:45:00,
2013-03-04 23:50:00,38.9,35.9,30.05,NE,42,1.0,2.0,89,0.00,,,-99.99,Weather View 32 v60,2013-03-05 07:50:00,
2013-03-04 23:55:00,38.6,35.9,30.06,NNE,30,1.0,2.0,90,0.00,,,-99.99,Weather View 32 v60,2013-03-05 07:55:00,